^^

..:: Storico WU ::..




Lo storico viene creato da WUnderground con i dati che la stazione Meteomincio invia al loro server. L' aggiornamento viene fatto ogni 5 minuti circa, tuttavia possono esserci intervalli pił ampi a causa di errori, interruzioni di servizio o problemi nell' invio tramite FTP.


Storico stazione MeteoMincio
Giorno Sommario per Aprile 17, 2022 Unità:  Inglese    Metrico   Entrambi
Giorno Settimana Mese Anno
  Max: Min: Media:
Temperatura: 64.4 °F 44.6 °F 54.7 °F
Dew Point: 46.4 °F 33.8 °F 38.3 °F
Umidità: 79% 38% 56%
Velocità vento: 14.9mph 0mph 7.2mph
Raffica: 19.9mph - -
Direzione- - East
Pressione: 30.2 in 30 in -
Precipitazioni: 0 in    
 
 
Tabulato Dati per Aprile 17, 2022
Ora Temperatura Dew Point Pressione Direzione Velocità vento Raffica Umidità Intensità pioggia (oraria) Info solare Situazione
00:04 55.4 °F 46.4 °F 30.1 in ENE 7.5 mph 11.8 mph 72% 0 in 0.00 W/m2 unknown
00:09 55.4 °F 46.4 °F 30.1 in ENE 6.2 mph 11.8 mph 72% 0 in 0.00 W/m2 unknown
00:14 55.4 °F 46.4 °F 30.2 in ENE 5.6 mph 9.3 mph 73% 0 in 0.00 W/m2 unknown
00:19 53.6 °F 46.4 °F 30.2 in ENE 6.8 mph 8.7 mph 73% 0 in 0.00 W/m2 unknown
00:24 53.6 °F 46.4 °F 30.2 in ENE 6.8 mph 8.1 mph 73% 0 in 0.00 W/m2 unknown
00:29 53.6 °F 44.6 °F 30.2 in ENE 5.6 mph 8.1 mph 72% 0 in 0.00 W/m2 unknown
00:34 53.6 °F 44.6 °F 30.2 in ENE 5.6 mph 6.8 mph 72% 0 in 0.00 W/m2 unknown
00:39 53.6 °F 44.6 °F 30.2 in ENE 3.7 mph 6.8 mph 72% 0 in 0.00 W/m2 unknown
00:44 53.6 °F 44.6 °F 30.2 in ENE 4.3 mph 8.1 mph 72% 0 in 0.00 W/m2 unknown
00:49 53.6 °F 44.6 °F 30.2 in ENE 6.8 mph 8.7 mph 72% 0 in 0.00 W/m2 unknown
00:54 53.6 °F 44.6 °F 30.2 in ENE 7.5 mph 9.9 mph 72% 0 in 0.00 W/m2 unknown
00:59 53.6 °F 44.6 °F 30.2 in ENE 8.7 mph 11.8 mph 72% 0 in 0.00 W/m2 unknown
01:04 53.6 °F 44.6 °F 30.2 in ENE 9.3 mph 13 mph 72% 0 in 0.00 W/m2 unknown
01:09 53.6 °F 44.6 °F 30.2 in ENE 9.9 mph 14.3 mph 72% 0 in 0.00 W/m2 unknown
01:14 53.6 °F 44.6 °F 30.2 in ENE 6.8 mph 14.3 mph 72% 0 in 0.00 W/m2 unknown
01:19 53.6 °F 44.6 °F 30.2 in ENE 9.9 mph 14.3 mph 72% 0 in 0.00 W/m2 unknown
01:24 53.6 °F 44.6 °F 30.2 in ENE 8.7 mph 14.3 mph 72% 0 in 0.00 W/m2 unknown
01:29 53.6 °F 44.6 °F 30.2 in ENE 9.3 mph 11.8 mph 72% 0 in 0.00 W/m2 unknown
01:34 53.6 °F 44.6 °F 30.2 in East 8.7 mph 11.8 mph 73% 0 in 0.00 W/m2 unknown
01:39 53.6 °F 44.6 °F 30.2 in ENE 8.1 mph 10.6 mph 73% 0 in 0.00 W/m2 unknown
01:44 51.8 °F 44.6 °F 30.2 in ENE 8.1 mph 10.6 mph 73% 0 in 0.00 W/m2 unknown
01:49 51.8 °F 44.6 °F 30.2 in ENE 8.1 mph 11.8 mph 74% 0 in 0.00 W/m2 unknown
01:54 51.8 °F 44.6 °F 30.2 in ENE 8.1 mph 11.8 mph 74% 0 in 0.00 W/m2 unknown
01:59 51.8 °F 44.6 °F 30.2 in ENE 7.5 mph 10.6 mph 74% 0 in 0.00 W/m2 unknown
02:04 51.8 °F 42.8 °F 30.2 in East 6.8 mph 10.6 mph 73% 0 in 0.00 W/m2 unknown
02:09 51.8 °F 42.8 °F 30.2 in East 7.5 mph 10.6 mph 73% 0 in 0.00 W/m2 unknown
02:14 51.8 °F 42.8 °F 30.2 in ENE 9.3 mph 13 mph 73% 0 in 0.00 W/m2 unknown
02:19 51.8 °F 42.8 °F 30.2 in ENE 9.3 mph 14.3 mph 73% 0 in 0.00 W/m2 unknown
02:24 51.8 °F 42.8 °F 30.2 in ENE 9.3 mph 14.3 mph 73% 0 in 0.00 W/m2 unknown
02:29 51.8 °F 42.8 °F 30.2 in ENE 9.3 mph 13 mph 73% 0 in 0.00 W/m2 unknown
02:34 51.8 °F 42.8 °F 30.2 in East 9.9 mph 14.3 mph 72% 0 in 0.00 W/m2 unknown
02:39 51.8 °F 42.8 °F 30.2 in East 11.8 mph 16.2 mph 71% 0 in 0.00 W/m2 unknown
02:44 51.8 °F 42.8 °F 30.2 in East 11.8 mph 17.4 mph 71% 0 in 0.00 W/m2 unknown
02:49 51.8 °F 42.8 °F 30.2 in East 10.6 mph 16.8 mph 70% 0 in 0.00 W/m2 unknown
02:54 51.8 °F 42.8 °F 30.2 in ENE 9.9 mph 14.3 mph 69% 0 in 0.00 W/m2 unknown
02:59 51.8 °F 41 °F 30.2 in East 10.6 mph 16.2 mph 68% 0 in 0.00 W/m2 unknown
03:04 51.8 °F 41 °F 30.2 in East 12.4 mph 17.4 mph 67% 0 in 0.00 W/m2 unknown
03:09 51.8 °F 41 °F 30.2 in East 11.8 mph 16.8 mph 66% 0 in 0.00 W/m2 unknown
03:14 51.8 °F 41 °F 30.2 in East 14.9 mph 18.6 mph 66% 0 in 0.00 W/m2 unknown
03:19 51.8 °F 41 °F 30.2 in East 14.3 mph 19.9 mph 66% 0 in 0.00 W/m2 unknown
03:24 51.8 °F 41 °F 30.2 in East 13 mph 19.9 mph 65% 0 in 0.00 W/m2 unknown
03:29 51.8 °F 41 °F 30.2 in East 11.8 mph 18 mph 65% 0 in 0.00 W/m2 unknown
03:34 51.8 °F 41 °F 30.2 in East 8.1 mph 16.2 mph 66% 0 in 0.00 W/m2 unknown
03:39 51.8 °F 41 °F 30.2 in East 13.7 mph 18.6 mph 66% 0 in 0.00 W/m2 unknown
03:44 51.8 °F 41 °F 30.2 in ESE 12.4 mph 19.9 mph 65% 0 in 0.00 W/m2 unknown
03:49 51.8 °F 39.2 °F 30.2 in East 11.8 mph 19.9 mph 64% 0 in 0.00 W/m2 unknown
03:54 51.8 °F 41 °F 30.2 in East 11.8 mph 18.6 mph 65% 0 in 0.00 W/m2 unknown
03:59 51.8 °F 41 °F 30.2 in ESE 11.2 mph 18 mph 65% 0 in 0.00 W/m2 unknown
04:04 51.8 °F 41 °F 30.2 in ESE 9.9 mph 14.9 mph 66% 0 in 0.00 W/m2 unknown
04:09 51.8 °F 41 °F 30.2 in ESE 9.3 mph 14.3 mph 66% 0 in 0.00 W/m2 unknown
04:14 51.8 °F 39.2 °F 30.2 in East 11.2 mph 17.4 mph 66% 0 in 0.00 W/m2 unknown
04:19 51.8 °F 39.2 °F 30.2 in ESE 9.9 mph 16.8 mph 66% 0 in 0.00 W/m2 unknown
04:24 50 °F 39.2 °F 30.2 in East 13.7 mph 16.2 mph 66% 0 in 0.00 W/m2 unknown
04:29 50 °F 39.2 °F 30.2 in ESE 11.8 mph 17.4 mph 66% 0 in 0.00 W/m2 unknown
04:34 50 °F 39.2 °F 30.2 in ESE 11.8 mph 16.8 mph 66% 0 in 0.00 W/m2 unknown
04:39 50 °F 39.2 °F 30.2 in ESE 9.9 mph 16.2 mph 66% 0 in 0.00 W/m2 unknown
04:44 50 °F 39.2 °F 30.2 in ESE 10.6 mph 16.2 mph 66% 0 in 0.00 W/m2 unknown
04:49 50 °F 39.2 °F 30.2 in ESE 11.2 mph 16.2 mph 67% 0 in 0.00 W/m2 unknown
04:54 50 °F 39.2 °F 30.2 in East 8.7 mph 14.3 mph 67% 0 in 0.00 W/m2 unknown
04:59 50 °F 39.2 °F 30.2 in ESE 9.3 mph 11.8 mph 67% 0 in 0.00 W/m2 unknown
05:04 50 °F 39.2 °F 30.2 in East 8.1 mph 11.8 mph 68% 0 in 0.00 W/m2 unknown
05:09 50 °F 39.2 °F 30.2 in ESE 7.5 mph 10.6 mph 68% 0 in 0.00 W/m2 unknown
05:14 50 °F 39.2 °F 30.2 in ESE 6.2 mph 9.9 mph 69% 0 in 0.00 W/m2 unknown
05:19 48.2 °F 39.2 °F 30.2 in ESE 6.2 mph 8.1 mph 69% 0 in 0.00 W/m2 unknown
05:24 48.2 °F 39.2 °F 30.2 in ESE 4.3 mph 8.1 mph 70% 0 in 0.00 W/m2 unknown
05:29 48.2 °F 39.2 °F 30.2 in ESE 5 mph 8.1 mph 71% 0 in 0.00 W/m2 unknown
05:34 48.2 °F 39.2 °F 30.2 in ESE 6.2 mph 8.1 mph 71% 0 in 0.00 W/m2 unknown
05:39 48.2 °F 39.2 °F 30.2 in ESE 5 mph 8.1 mph 71% 0 in 0.00 W/m2 unknown
05:44 48.2 °F 39.2 °F 30.2 in ESE 3.7 mph 8.1 mph 72% 0 in 0.00 W/m2 unknown
05:49 48.2 °F 39.2 °F 30.2 in ESE 4.3 mph 6.8 mph 72% 0 in 0.00 W/m2 unknown
05:54 48.2 °F 39.2 °F 30.2 in East 1.9 mph 6.8 mph 72% 0 in 0.00 W/m2 unknown
05:59 48.2 °F 39.2 °F 30.2 in ESE 1.2 mph 3.7 mph 73% 0 in 0.00 W/m2 unknown
06:04 46.4 °F 39.2 °F 30.2 in ESE 1.9 mph 3.7 mph 73% 0 in 0.00 W/m2 unknown
06:09 46.4 °F 39.2 °F 30.2 in ESE 1.9 mph 3.7 mph 74% 0 in 0.00 W/m2 unknown
06:14 46.4 °F 39.2 °F 30.2 in ESE 3.1 mph 5 mph 74% 0 in 0.00 W/m2 unknown
06:19 46.4 °F 39.2 °F 30.2 in ESE 3.7 mph 5 mph 75% 0 in 0.00 W/m2 unknown
06:24 46.4 °F 39.2 °F 30.2 in ESE 3.7 mph 5 mph 75% 0 in 0.00 W/m2 unknown
06:29 46.4 °F 39.2 °F 30.2 in ESE 2.5 mph 5 mph 76% 0 in 0.00 W/m2 unknown
06:34 46.4 °F 39.2 °F 30.2 in ESE 1.9 mph 3.1 mph 77% 0 in 5.00 W/m2 unknown
06:39 44.6 °F 39.2 °F 30.2 in ESE 1.2 mph 2.5 mph 78% 0 in 7.00 W/m2 unknown
06:44 44.6 °F 39.2 °F 30.2 in ESE 1.2 mph 2.5 mph 78% 0 in 11.00 W/m2 unknown
06:49 44.6 °F 39.2 °F 30.2 in East 1.9 mph 2.5 mph 78% 0 in 12.00 W/m2 unknown
06:54 44.6 °F 39.2 °F 30.2 in ESE 1.2 mph 2.5 mph 79% 0 in 16.00 W/m2 unknown
06:59 46.4 °F 39.2 °F 30.2 in ESE 1.2 mph 2.5 mph 79% 0 in 18.00 W/m2 unknown
07:04 46.4 °F 39.2 °F 30.2 in East 1.2 mph 2.5 mph 78% 0 in 19.00 W/m2 unknown
07:09 46.4 °F 39.2 °F 30.2 in Calm   1.9 mph 78% 0 in 32.00 W/m2 unknown
07:14 46.4 °F 39.2 °F 30.2 in East 0.6 mph 1.2 mph 78% 0 in 40.00 W/m2 unknown
07:19 46.4 °F 39.2 °F 30.2 in East 1.2 mph 2.5 mph 78% 0 in 49.00 W/m2 unknown
07:24 46.4 °F 39.2 °F 30.2 in East 2.5 mph 3.7 mph 77% 0 in 62.00 W/m2 unknown
07:29 48.2 °F 39.2 °F 30.2 in ESE 1.9 mph 3.7 mph 76% 0 in 74.00 W/m2 unknown
07:34 48.2 °F 39.2 °F 30.2 in East 1.9 mph 3.7 mph 75% 0 in 88.00 W/m2 unknown
07:39 48.2 °F 41 °F 30.2 in ENE 2.5 mph 3.7 mph 74% 0 in 104.00 W/m2 unknown
07:44 48.2 °F 41 °F 30.2 in ENE 2.5 mph 3.7 mph 74% 0 in 118.00 W/m2 unknown
07:49 48.2 °F 41 °F 30.2 in East 2.5 mph 3.7 mph 73% 0 in 135.00 W/m2 unknown
07:54 50 °F 41 °F 30.2 in ENE 5.6 mph 6.8 mph 73% 0 in 153.00 W/m2 unknown
07:59 50 °F 41 °F 30.2 in East 5.6 mph 6.8 mph 71% 0 in 169.00 W/m2 unknown
08:04 50 °F 41 °F 30.2 in East 5 mph 6.8 mph 69% 0 in 186.00 W/m2 unknown
08:09 50 °F 39.2 °F 30.2 in ENE 5.6 mph 8.1 mph 68% 0 in 200.00 W/m2 unknown
08:14 50 °F 39.2 °F 30.2 in ENE 5 mph 8.1 mph 67% 0 in 216.00 W/m2 unknown
08:19 50 °F 39.2 °F 30.2 in ENE 5.6 mph 8.7 mph 67% 0 in 229.00 W/m2 unknown
08:24 50 °F 39.2 °F 30.2 in ENE 6.8 mph 10.6 mph 66% 0 in 244.00 W/m2 unknown
08:29 51.8 °F 39.2 °F 30.2 in ENE 7.5 mph 9.9 mph 66% 0 in 258.00 W/m2 unknown
08:34 51.8 °F 39.2 °F 30.2 in ENE 8.1 mph 10.6 mph 66% 0 in 274.00 W/m2 unknown
08:39 51.8 °F 39.2 °F 30.2 in East 8.7 mph 11.8 mph 64% 0 in 290.00 W/m2 unknown
08:44 51.8 °F 39.2 °F 30.2 in ENE 8.7 mph 11.8 mph 64% 0 in 304.00 W/m2 unknown
08:49 51.8 °F 39.2 °F 30.2 in ENE 8.1 mph 11.8 mph 62% 0 in 318.00 W/m2 unknown
08:54 51.8 °F 39.2 °F 30.2 in ENE 9.3 mph 11.8 mph 61% 0 in 334.00 W/m2 unknown
08:59 53.6 °F 39.2 °F 30.2 in ENE 6.2 mph 11.8 mph 61% 0 in 348.00 W/m2 unknown
09:04 53.6 °F 39.2 °F 30.2 in East 11.2 mph 14.9 mph 60% 0 in 362.00 W/m2 unknown
09:09 53.6 °F 37.4 °F 30.2 in East 11.8 mph 17.4 mph 58% 0 in 378.00 W/m2 unknown
09:14 53.6 °F 37.4 °F 30.2 in East 12.4 mph 16.8 mph 57% 0 in 392.00 W/m2 unknown
09:19 53.6 °F 37.4 °F 30.2 in East 13 mph 17.4 mph 56% 0 in 408.00 W/m2 unknown
09:24 53.6 °F 37.4 °F 30.2 in East 9.9 mph 17.4 mph 56% 0 in 420.00 W/m2 unknown
09:29 53.6 °F 37.4 °F 30.2 in East 12.4 mph 16.8 mph 56% 0 in 432.00 W/m2 unknown
09:34 53.6 °F 37.4 °F 30.2 in East 11.2 mph 16.2 mph 56% 0 in 450.00 W/m2 unknown
09:39 53.6 °F 39.2 °F 30.2 in East 14.3 mph 19.3 mph 56% 0 in 462.00 W/m2 unknown
09:44 53.6 °F 37.4 °F 30.2 in East 14.9 mph 19.9 mph 55% 0 in 476.00 W/m2 unknown
09:49 55.4 °F 37.4 °F 30.2 in East 11.8 mph 19.9 mph 54% 0 in 492.00 W/m2 unknown
09:54 55.4 °F 37.4 °F 30.2 in ESE 14.9 mph 19.9 mph 53% 0 in 506.00 W/m2 unknown
09:59 53.6 °F 37.4 °F 30.2 in East 14.9 mph 19.9 mph 53% 0 in 517.00 W/m2 unknown
10:04 55.4 °F 37.4 °F 30.2 in East 13.7 mph 19.9 mph 52% 0 in 534.00 W/m2 unknown
10:09 55.4 °F 37.4 °F 30.2 in East 14.3 mph 18.6 mph 52% 0 in 547.00 W/m2 unknown
10:14 55.4 °F 37.4 °F 30.2 in East 14.9 mph 18.6 mph 52% 0 in 559.00 W/m2 unknown
10:19 55.4 °F 37.4 °F 30.2 in ESE 10.6 mph 18 mph 51% 0 in 573.00 W/m2 unknown
10:24 55.4 °F 37.4 °F 30.2 in East 14.9 mph 18.6 mph 51% 0 in 584.00 W/m2 unknown
10:29 55.4 °F 37.4 °F 30.2 in East 14.3 mph 18.6 mph 51% 0 in 596.00 W/m2 unknown
10:34 55.4 °F 37.4 °F 30.2 in East 13 mph 18 mph 51% 0 in 606.00 W/m2 unknown
10:39 55.4 °F 37.4 °F 30.2 in East 13 mph 18 mph 51% 0 in 617.00 W/m2 unknown
10:44 55.4 °F 37.4 °F 30.2 in East 13 mph 18.6 mph 51% 0 in 628.00 W/m2 unknown
10:49 57.2 °F 37.4 °F 30.2 in East 11.8 mph 18 mph 51% 0 in 638.00 W/m2 unknown
10:54 57.2 °F 37.4 °F 30.2 in East 13 mph 16.2 mph 50% 0 in 647.00 W/m2 unknown
10:59 57.2 °F 39.2 °F 30.2 in East 13 mph 16.2 mph 51% 0 in 659.00 W/m2 unknown
11:04 57.2 °F 39.2 °F 30.2 in East 13.7 mph 16.2 mph 52% 0 in 666.00 W/m2 unknown
11:09 57.2 °F 39.2 °F 30.2 in ESE 12.4 mph 19.3 mph 52% 0 in 548.00 W/m2 unknown
11:14 57.2 °F 37.4 °F 30.2 in East 13.7 mph 19.9 mph 50% 0 in 547.00 W/m2 unknown
11:19 57.2 °F 37.4 °F 30.2 in East 13 mph 19.9 mph 47% 0 in 698.00 W/m2 unknown
11:24 57.2 °F 37.4 °F 30.2 in East 13.7 mph 18.6 mph 48% 0 in 710.00 W/m2 unknown
11:29 57.2 °F 37.4 °F 30.2 in ESE 13 mph 18 mph 49% 0 in 717.00 W/m2 unknown
11:34 57.2 °F 37.4 °F 30.2 in East 11.8 mph 14.3 mph 49% 0 in 724.00 W/m2 unknown
11:39 57.2 °F 39.2 °F 30.2 in ESE 14.3 mph 17.4 mph 50% 0 in 733.00 W/m2 unknown
11:44 57.2 °F 37.4 °F 30.2 in ESE 12.4 mph 19.9 mph 47% 0 in 742.00 W/m2 unknown
11:49 57.2 °F 37.4 °F 30.2 in East 11.8 mph 19.9 mph 48% 0 in 752.00 W/m2 unknown
11:54 59 °F 39.2 °F 30.2 in ESE 11.8 mph 18.6 mph 48% 0 in 759.00 W/m2 unknown
11:59 59 °F 39.2 °F 30.2 in East 11.8 mph 18 mph 48% 0 in 765.00 W/m2 unknown
12:04 59 °F 37.4 °F 30.2 in ESE 9.9 mph 16.2 mph 46% 0 in 773.00 W/m2 unknown
12:09 59 °F 37.4 °F 30.2 in SE 11.2 mph 14.9 mph 47% 0 in 779.00 W/m2 unknown
12:14 59 °F 37.4 °F 30.2 in East 13.7 mph 19.9 mph 46% 0 in 786.00 W/m2 unknown
12:19 59 °F 37.4 °F 30.2 in East 10.6 mph 19.9 mph 46% 0 in 786.00 W/m2 unknown
12:24 59 °F 37.4 °F 30.1 in ESE 11.8 mph 16.8 mph 47% 0 in 795.00 W/m2 unknown
12:29 59 °F 37.4 °F 30.1 in East 13 mph 18 mph 46% 0 in 796.00 W/m2 unknown
12:34 59 °F 37.4 °F 30.1 in ESE 13.7 mph 18.6 mph 46% 0 in 802.00 W/m2 unknown
12:39 59 °F 37.4 °F 30.1 in ENE 9.3 mph 18 mph 45% 0 in 803.00 W/m2 unknown
12:44 59 °F 37.4 °F 30.1 in ENE 9.3 mph 11.8 mph 44% 0 in 805.00 W/m2 unknown
12:49 59 °F 37.4 °F 30.1 in East 8.7 mph 13 mph 45% 0 in 809.00 W/m2 unknown
12:54 60.8 °F 37.4 °F 30.1 in East 9.3 mph 13 mph 44% 0 in 809.00 W/m2 unknown
12:59 59 °F 37.4 °F 30.1 in East 10.6 mph 17.4 mph 43% 0 in 814.00 W/m2 unknown
13:04 60.8 °F 39.2 °F 30.1 in ENE 10.6 mph 16.8 mph 44% 0 in 810.00 W/m2 unknown
13:09 60.8 °F 37.4 °F 30.1 in East 9.3 mph 18.6 mph 44% 0 in 814.00 W/m2 unknown
13:14 59 °F 37.4 °F 30.1 in ENE 9.9 mph 18 mph 44% 0 in 819.00 W/m2 unknown
13:19 59 °F 37.4 °F 30.1 in East 9.9 mph 13 mph 43% 0 in 819.00 W/m2 unknown
13:24 60.8 °F 37.4 °F 30.1 in East 9.9 mph 13 mph 45% 0 in 817.00 W/m2 unknown
13:29 60.8 °F 37.4 °F 30.1 in SE 9.9 mph 13 mph 44% 0 in 817.00 W/m2 unknown
13:34 60.8 °F 37.4 °F 30.1 in ESE 10.6 mph 14.3 mph 43% 0 in 819.00 W/m2 unknown
13:39 60.8 °F 37.4 °F 30.1 in East 7.5 mph 14.3 mph 42% 0 in 816.00 W/m2 unknown
13:44 60.8 °F 37.4 °F 30.1 in ESE 7.5 mph 11.8 mph 42% 0 in 819.00 W/m2 unknown
13:49 60.8 °F 35.6 °F 30.1 in ESE 10.6 mph 13 mph 41% 0 in 817.00 W/m2 unknown
13:54 60.8 °F 39.2 °F 30.1 in East 7.5 mph 13 mph 45% 0 in 816.00 W/m2 unknown
13:59 60.8 °F 37.4 °F 30.1 in SE 7.5 mph 10.6 mph 42% 0 in 812.00 W/m2 unknown
14:04 60.8 °F 37.4 °F 30.1 in ESE 9.9 mph 11.8 mph 41% 0 in 812.00 W/m2 unknown
14:09 60.8 °F 37.4 °F 30.1 in SE 8.1 mph 11.8 mph 41% 0 in 809.00 W/m2 unknown
14:14 60.8 °F 37.4 °F 30.1 in South 6.8 mph 11.8 mph 41% 0 in 802.00 W/m2 unknown
14:19 60.8 °F 37.4 °F 30.1 in SE 6.2 mph 9.9 mph 41% 0 in 798.00 W/m2 unknown
14:24 60.8 °F 37.4 °F 30.1 in ESE 8.7 mph 14.3 mph 41% 0 in 798.00 W/m2 unknown
14:29 60.8 °F 37.4 °F 30.1 in ESE 6.8 mph 14.3 mph 41% 0 in 788.00 W/m2 unknown
14:34 62.6 °F 37.4 °F 30.1 in SSE 5 mph 8.1 mph 41% 0 in 782.00 W/m2 unknown
14:39 62.6 °F 37.4 °F 30.1 in East 8.7 mph 11.8 mph 40% 0 in 779.00 W/m2 unknown
14:44 60.8 °F 37.4 °F 30.1 in NE 8.1 mph 11.8 mph 41% 0 in 770.00 W/m2 unknown
14:49 60.8 °F 37.4 °F 30.1 in NE 9.3 mph 13 mph 41% 0 in 766.00 W/m2 unknown
14:54 62.6 °F 37.4 °F 30.1 in NE 6.2 mph 13 mph 40% 0 in 766.00 W/m2 unknown
14:59 62.6 °F 39.2 °F 30.1 in SE 11.8 mph 14.3 mph 41% 0 in 752.00 W/m2 unknown
15:04 62.6 °F 35.6 °F 30.1 in ESE 11.2 mph 14.3 mph 39% 0 in 749.00 W/m2 unknown
15:09 62.6 °F 37.4 °F 30.1 in ESE 6.2 mph 10.6 mph 41% 0 in 740.00 W/m2 unknown
15:14 62.6 °F 37.4 °F 30.1 in SSE 6.2 mph 9.9 mph 40% 0 in 735.00 W/m2 unknown
15:19 62.6 °F 37.4 °F 30.1 in SE 9.3 mph 11.8 mph 40% 0 in 728.00 W/m2 unknown
15:24 62.6 °F 37.4 °F 30.1 in East 9.3 mph 12.4 mph 40% 0 in 722.00 W/m2 unknown
15:29 62.6 °F 37.4 °F 30.1 in NE 6.8 mph 13 mph 40% 0 in 712.00 W/m2 unknown
15:34 64.4 °F 39.2 °F 30.1 in NNE 5 mph 8.1 mph 42% 0 in 700.00 W/m2 unknown
15:39 62.6 °F 39.2 °F 30.1 in East 6.2 mph 10.6 mph 40% 0 in 693.00 W/m2 unknown
15:44 62.6 °F 37.4 °F 30.1 in East 8.7 mph 14.3 mph 40% 0 in 687.00 W/m2 unknown
15:49 62.6 °F 37.4 °F 30.1 in East 6.8 mph 14.3 mph 40% 0 in 677.00 W/m2 unknown
15:54 62.6 °F 37.4 °F 30.1 in East 6.8 mph 9.9 mph 39% 0 in 659.00 W/m2 unknown
15:59 62.6 °F 37.4 °F 30.1 in ESE 8.7 mph 13 mph 40% 0 in 654.00 W/m2 unknown
16:04 62.6 °F 37.4 °F 30.1 in SE 7.5 mph 13 mph 40% 0 in 642.00 W/m2 unknown
16:09 62.6 °F 37.4 °F 30.1 in SSE 5 mph 13 mph 39% 0 in 628.00 W/m2 unknown
16:14 62.6 °F 37.4 °F 30.1 in SSW 5 mph 8.7 mph 39% 0 in 622.00 W/m2 unknown
16:19 62.6 °F 37.4 °F 30.1 in ESE 9.3 mph 13 mph 41% 0 in 619.00 W/m2 unknown
16:24 62.6 °F 37.4 °F 30.1 in East 10.6 mph 14.3 mph 39% 0 in 610.00 W/m2 unknown
16:29 62.6 °F 37.4 °F 30.1 in ESE 8.7 mph 14.3 mph 40% 0 in 610.00 W/m2 unknown
16:34 62.6 °F 37.4 °F 30.1 in NE 6.2 mph 11.8 mph 40% 0 in 547.00 W/m2 unknown
16:39 62.6 °F 37.4 °F 30.1 in ESE 11.8 mph 18.6 mph 41% 0 in 418.00 W/m2 unknown
16:44 62.6 °F 37.4 °F 30.1 in ESE 8.7 mph 18 mph 40% 0 in 499.00 W/m2 unknown
16:49 62.6 °F 37.4 °F 30.1 in ESE 8.1 mph 13 mph 40% 0 in 457.00 W/m2 unknown
16:54 62.6 °F 37.4 °F 30 in South 5.6 mph 8.7 mph 40% 0 in 508.00 W/m2 unknown
16:59 62.6 °F 37.4 °F 30 in ESE 8.1 mph 10.6 mph 40% 0 in 512.00 W/m2 unknown
17:04 62.6 °F 37.4 °F 30 in SE 5 mph 9.9 mph 40% 0 in 504.00 W/m2 unknown
17:09 62.6 °F 37.4 °F 30 in ESE 8.7 mph 11.8 mph 41% 0 in 471.00 W/m2 unknown
17:14 62.6 °F 37.4 °F 30 in SE 6.8 mph 11.8 mph 39% 0 in 452.00 W/m2 unknown
17:19 60.8 °F 35.6 °F 30 in South 5.6 mph 8.1 mph 39% 0 in 408.00 W/m2 unknown
17:24 62.6 °F 37.4 °F 30 in SE 7.5 mph 11.2 mph 40% 0 in 434.00 W/m2 unknown
17:29 62.6 °F 37.4 °F 30 in East 6.8 mph 14.3 mph 40% 0 in 424.00 W/m2 unknown
17:34 62.6 °F 37.4 °F 30 in ESE 10.6 mph 14.3 mph 40% 0 in 392.00 W/m2 unknown
17:39 60.8 °F 35.6 °F 30 in ESE 11.2 mph 14.9 mph 39% 0 in 392.00 W/m2 unknown
17:44 60.8 °F 35.6 °F 30 in SE 8.1 mph 14.9 mph 39% 0 in 338.00 W/m2 unknown
17:49 60.8 °F 35.6 °F 30 in SE 5 mph 11.8 mph 38% 0 in 378.00 W/m2 unknown
17:54 60.8 °F 35.6 °F 30 in ESE 8.7 mph 12.4 mph 39% 0 in 323.00 W/m2 unknown
17:59 60.8 °F 35.6 °F 30 in ESE 9.9 mph 14.9 mph 38% 0 in 132.00 W/m2 unknown
18:04 60.8 °F 35.6 °F 30 in ESE 8.7 mph 14.9 mph 38% 0 in 322.00 W/m2 unknown
18:09 60.8 °F 35.6 °F 30 in SE 8.7 mph 11.8 mph 38% 0 in 318.00 W/m2 unknown
18:14 60.8 °F 35.6 °F 30 in ESE 7.5 mph 11.8 mph 38% 0 in 246.00 W/m2 unknown
18:19 60.8 °F 33.8 °F 30 in ESE 7.5 mph 10.6 mph 38% 0 in 141.00 W/m2 unknown
18:24 59 °F 33.8 °F 30 in SE 6.2 mph 9.9 mph 39% 0 in 118.00 W/m2 unknown
18:29 59 °F 33.8 °F 30 in SSE 5 mph 8.7 mph 39% 0 in 107.00 W/m2 unknown
18:34 59 °F 33.8 °F 30 in ESE 5.6 mph 8.1 mph 39% 0 in 114.00 W/m2 unknown
18:39 59 °F 35.6 °F 30 in SE 5 mph 8.1 mph 40% 0 in 174.00 W/m2 unknown
18:44 59 °F 33.8 °F 30 in SSE 5 mph 8.1 mph 39% 0 in 160.00 W/m2 unknown
18:49 59 °F 33.8 °F 30 in SE 5 mph 8.1 mph 39% 0 in 127.00 W/m2 unknown
18:54 59 °F 33.8 °F 30 in SE 5.6 mph 9.3 mph 38% 0 in 69.00 W/m2 unknown
18:59 59 °F 33.8 °F 30 in ESE 5 mph 8.7 mph 38% 0 in 60.00 W/m2 unknown
19:04 59 °F 33.8 °F 30 in ESE 5.6 mph 8.1 mph 39% 0 in 60.00 W/m2 unknown
19:09 59 °F 33.8 °F 30 in ESE 5 mph 8.1 mph 40% 0 in 56.00 W/m2 unknown
19:14 57.2 °F 33.8 °F 30 in ESE 5 mph 8.1 mph 40% 0 in 53.00 W/m2 unknown
19:19 57.2 °F 33.8 °F 30 in SE 5 mph 8.1 mph 40% 0 in 42.00 W/m2 unknown
19:23 57.2 °F 33.8 °F 30 in SE 3.7 mph 8.1 mph 40% 0 in 35.00 W/m2 unknown
19:49 57.2 °F 33.8 °F 30 in SE 4.3 mph 5 mph 42% 0 in 12.00 W/m2 unknown
19:54 57.2 °F 33.8 °F 30 in SE 3.7 mph 6.8 mph 42% 0 in 23.00 W/m2 unknown
19:59 57.2 °F 33.8 °F 30 in ESE 3.1 mph 6.8 mph 43% 0 in 5.00 W/m2 unknown
20:04 55.4 °F 33.8 °F 30 in SSE 3.1 mph 5 mph 44% 0 in 0.00 W/m2 unknown
20:09 55.4 °F 33.8 °F 30 in SSE 2.5 mph 5 mph 44% 0 in 0.00 W/m2 unknown
20:14 55.4 °F 33.8 °F 30 in SE 2.5 mph 3.7 mph 44% 0 in 0.00 W/m2 unknown
20:19 55.4 °F 35.6 °F 30 in SE 2.5 mph 3.7 mph 45% 0 in 0.00 W/m2 unknown
20:24 55.4 °F 35.6 °F 30 in SSE 1.9 mph 3.7 mph 46% 0 in 0.00 W/m2 unknown
20:29 55.4 °F 35.6 °F 30 in SSE 2.5 mph 3.7 mph 46% 0 in 0.00 W/m2 unknown
20:34 55.4 °F 35.6 °F 30 in SSE 1.9 mph 3.7 mph 47% 0 in 0.00 W/m2 unknown
20:39 55.4 °F 35.6 °F 30 in SE 2.5 mph 3.7 mph 47% 0 in 0.00 W/m2 unknown
20:44 55.4 °F 35.6 °F 30 in ESE 3.1 mph 3.7 mph 47% 0 in 0.00 W/m2 unknown
20:49 55.4 °F 35.6 °F 30 in SE 2.5 mph 3.7 mph 47% 0 in 0.00 W/m2 unknown
20:54 53.6 °F 35.6 °F 30 in SE 2.5 mph 3.7 mph 48% 0 in 0.00 W/m2 unknown
20:59 53.6 °F 35.6 °F 30 in SE 3.1 mph 5 mph 48% 0 in 0.00 W/m2 unknown
21:04 53.6 °F 35.6 °F 30 in SE 3.1 mph 5 mph 48% 0 in 0.00 W/m2 unknown
21:09 53.6 °F 35.6 °F 30 in ESE 2.5 mph 5 mph 48% 0 in 0.00 W/m2 unknown
21:14 53.6 °F 35.6 °F 30 in ESE 2.5 mph 3.7 mph 49% 0 in 0.00 W/m2 unknown
21:19 53.6 °F 35.6 °F 30.1 in ESE 2.5 mph 3.7 mph 49% 0 in 0.00 W/m2 unknown
21:24 53.6 °F 33.8 °F 30.1 in ESE 1.9 mph 3.7 mph 49% 0 in 0.00 W/m2 unknown
21:29 53.6 °F 35.6 °F 30.1 in ESE 1.9 mph 3.7 mph 50% 0 in 0.00 W/m2 unknown
21:34 53.6 °F 35.6 °F 30.1 in ESE 1.2 mph 3.1 mph 52% 0 in 0.00 W/m2 unknown
21:39 51.8 °F 35.6 °F 30.1 in ESE 0.6 mph 1.9 mph 53% 0 in 0.00 W/m2 unknown
21:44 51.8 °F 35.6 °F 30.1 in ESE 1.2 mph 2.5 mph 53% 0 in 0.00 W/m2 unknown
21:49 51.8 °F 35.6 °F 30.1 in ESE 1.2 mph 2.5 mph 52% 0 in 0.00 W/m2 unknown
21:54 51.8 °F 35.6 °F 30.1 in ESE 1.9 mph 2.5 mph 52% 0 in 0.00 W/m2 unknown
21:59 51.8 °F 35.6 °F 30.1 in ESE 1.2 mph 2.5 mph 54% 0 in 0.00 W/m2 unknown
22:04 51.8 °F 35.6 °F 30.1 in ESE 1.2 mph 2.5 mph 55% 0 in 0.00 W/m2 unknown
22:09 51.8 °F 35.6 °F 30.1 in ESE 1.2 mph 1.9 mph 55% 0 in 0.00 W/m2 unknown
22:14 51.8 °F 35.6 °F 30.1 in Calm   1.2 mph 54% 0 in 0.00 W/m2 unknown
22:19 51.8 °F 35.6 °F 30.1 in ESE 1.2 mph 1.2 mph 54% 0 in 0.00 W/m2 unknown
22:24 51.8 °F 35.6 °F 30.1 in ESE 1.2 mph 1.2 mph 55% 0 in 0.00 W/m2 unknown
22:29 51.8 °F 35.6 °F 30.1 in Calm   1.2 mph 56% 0 in 0.00 W/m2 unknown
22:34 50 °F 35.6 °F 30.1 in Calm     57% 0 in 0.00 W/m2 unknown
22:39 50 °F 35.6 °F 30.1 in Calm     58% 0 in 0.00 W/m2 unknown
22:44 50 °F 35.6 °F 30.1 in Calm     58% 0 in 0.00 W/m2 unknown
22:49 50 °F 35.6 °F 30.1 in Calm     60% 0 in 0.00 W/m2 unknown
22:54 50 °F 37.4 °F 30.1 in ESE 0.6 mph 1.2 mph 61% 0 in 0.00 W/m2 unknown
22:59 50 °F 35.6 °F 30.1 in ESE 0.6 mph 1.2 mph 61% 0 in 0.00 W/m2 unknown
23:04 50 °F 35.6 °F 30.1 in Calm   1.2 mph 61% 0 in 0.00 W/m2 unknown
23:09 50 °F 35.6 °F 30.1 in ENE 1.9 mph 2.5 mph 61% 0 in 0.00 W/m2 unknown
23:14 48.2 °F 35.6 °F 30.1 in ENE 1.2 mph 2.5 mph 60% 0 in 0.00 W/m2 unknown
23:19 48.2 °F 35.6 °F 30.1 in NE 1.9 mph 2.5 mph 60% 0 in 0.00 W/m2 unknown
23:24 48.2 °F 35.6 °F 30.1 in NE 1.9 mph 2.5 mph 61% 0 in 0.00 W/m2 unknown
23:29 48.2 °F 35.6 °F 30.1 in NE 1.2 mph 2.5 mph 61% 0 in 0.00 W/m2 unknown
23:34 48.2 °F 35.6 °F 30.1 in NE 1.2 mph 2.5 mph 62% 0 in 0.00 W/m2 unknown
23:39 48.2 °F 35.6 °F 30.1 in NE 0.6 mph 1.9 mph 62% 0 in 0.00 W/m2 unknown
23:44 48.2 °F 35.6 °F 30.1 in Calm   1.2 mph 64% 0 in 0.00 W/m2 unknown
23:49 48.2 °F 35.6 °F 30.1 in NE 2.5 mph 3.1 mph 65% 0 in 0.00 W/m2 unknown
23:59 48.2 °F 35.6 °F 30.1 in NE 1.9 mph 3.1 mph 63% 0 in 0.00 W/m2 unknown
Stazione Meteorologica MeteoMincio Rivalta s/M (MN)
Con i complimenti di Weather Underground - 4 mb



GLOSSARIO METEOROLOGICO
Umidità Relativa
E' definita come il rapporto tra la pressione di vapore effettiva (e) e la pressione di vapore saturo (es), normalmente espresso in percento. E' la proprietà del vapore acqueo più frequentemente osservata, e può essere utilizzata per ricavare le altre variabili. Viene espressa in %. Questo rapporto viene chiamato anche stato igrometrico dell'aria. Valori inferiori al 30% denotano la presenza di aria secca o poco umida, mentre valori superiori al 70-80% sono indice di una notevole umidità (ad esempio in caso di pioggia o di nebbia).
Share

Non seguire questo link o sarai bannato dal sito!